Wind_Speed
2 2 2 2 2 1 1 1 2 4 6 7 8 9 10 11 12 12 13 14 15 15 16 17 17 18 18 17 17 16 15 14 13 12 11 11 10 11 13 14 16 18 20
3 3 3 2 2 1 1 2 3 5 6 7 8 9 11 11 13 13 14 15 15 16 16 17 18 18 18 17 17 17 16 14 13 12 11 10 10 10 11 13 15 17 20
3 3 3 3 3 1 1 2 3 5 6 7 9 10 11 12 13 14 15 16 16 16 17 17 18 18 18 18 17 17 16 15 13 12 10 9 9 9 10 12 14 16 18
3 3 3 3 2 1 1 2 4 5 7 8 9 10 11 12 13 15 15 16 17 17 17 18 18 18 18 18 18 17 16 15 14 12 10 9 8 9 9 11 13 15 17
4 3 3 3 2 2 2 3 4 6 7 8 9 10 12 13 14 15 16 16 17 18 18 19 19 19 19 18 18 17 16 15 14 12 10 9 8 8 9 9 11 14 16
3 3 3 2 2 2 3 3 5 6 7 8 10 11 12 14 15 15 16 16 17 18 19 19 19 19 19 18 18 17 16 15 14 13 11 9 9 8 8 9 10 13 15
3 3 2 2 3 3 3 5 6 7 8 9 11 12 14 15 16 17 17 17 18 19 19 20 19 19 19 19 18 17 16 15 14 13 12 10 9 8 8 8 10 12 14
3 3 3 3 3 4 5 6 7 8 9 11 12 14 15 16 17 17 18 19 19 20 20 21 20 20 19 19 18 17 16 15 14 13 12 11 10 8 8 8 10 11 13
4 4 4 4 5 5 6 7 8 9 10 11 13 15 16 17 17 18 19 19 20 20 21 21 21 21 20 19 19 18 17 16 15 13 13 12 10 9 9 9 10 12 13
5 5 6 6 6 7 7 9 10 11 12 13 15 16 17 18 18 19 20 21 21 22 21 21 22 21 21 20 19 19 17 16 16 14 13 12 11 10 10 10 11 12 14
5 7 7 7 8 8 9 10 11 12 13 15 16 17 18 19 20 21 22 23 24 24 23 24 23 22 22 21 20 19 18 17 17 16 15 14 13 12 12 12 12 13 14
6 7 8 9 9 10 11 11 12 13 15 16 18 19 19 20 22 23 24 25 25 26 26 25 25 24 23 22 21 21 20 19 18 17 16 16 15 14 14 13 13 13 15
9 9 10 10 11 12 13 14 14 16 17 18 19 20 21 22 23 25 26 27 27 27 28 27 26 26 25 24 23 22 22 20 20 19 18 17 17 16 15 15 15 15 15
11 11 12 13 13 14 15 16 17 18 19 20 21 22 23 24 25 27 28 28 29 29 29 29 28 28 27 26 25 24 23 22 22 21 20 19 19 18 18 18 18 18 18
13 13 14 14 15 16 17 18 19 21 21 22 23 24 25 26 28 29 30 30 31 30 31 31 30 29 28 28 27 26 25 25 24 23 22 22 21 20 20 20 20 20 20
14 15 15 16 17 18 19 20 22 23 24 24 25 26 27 29 30 30 32 32 32 32 32 32 32 31 30 29 28 28 27 27 26 26 25 25 24 24 24 23 23 23 23
15 16 17 18 19 20 22 23 24 25 26 27 28 29 30 31 32 32 33 34 34 34 34 34 33 33 32 31 30 29 28 29 29 29 29 28 28 28 27 27 26 26 26
18 19 20 21 22 23 25 26 26 27 28 29 30 32 33 34 34 35 35 36 35 35 35 35 35 35 35 34 33 32 31 31 32 32 32 32 32 31 31 31 30 29 28
20 21 22 23 25 26 27 28 29 29 30 31 32 33 34 35 36 37 37 37 36 36 36 37 38 38 38 37 36 35 34 33 34 35 35 35 35 35 35 35 33 32 32
22 24 25 26 27 28 29 30 31 32 32 33 34 35 36 37 38 38 38 37 38 38 39 40 41 41 40 39 38 37 37 36 36 37 37 38 38 38 37 37 37 35 35
25 26 27 28 29 30 30 31 33 34 35 35 36 37 38 39 39 39 39 39 40 41 42 42 42 42 41 40 39 38 38 38 39 39 38 39 40 39 38 38 38 37 37
28 29 29 30 31 32 33 33 34 35 36 37 38 39 40 41 41 41 41 41 42 43 43 43 43 43 42 41 41 40 40 40 41 41 40 40 40 39 38 37 38 38 38
30 31 31 32 33 34 35 36 36 37 38 39 40 41 41 42 43 43 43 43 43 44 44 44 44 44 44 43 42 42 41 41 42 42 41 40 39 38 37 37 37 38 38
32 33 34 35 35 36 37 38 38 39 40 42 42 43 43 44 44 45 45 45 45 45 46 46 46 45 45 44 43 42 42 42 42 42 40 39 39 38 37 36 36 36 37
35 36 36 37 38 39 39 40 41 41 42 43 43 44 45 45 46 47 47 47 47 47 48 48 47 47 46 45 44 44 44 43 42 41 40 39 39 38 38 37 36 36 37
37 38 39 40 41 41 42 42 42 43 44 44 45 46 47 47 48 48 48 49 49 49 50 50 49 48 48 47 46 45 45 44 43 42 40 40 40 39 39 38 37 37 38
Wind_Direction
206 189 180 179 177 184 241 307 343 349 346 347 344 343 343 342 341 340 340 340 339 338 339 340 340 341 341 341 341 339 334 330 325 318 309 299 281 264 256 248 240 234 229
193 186 179 181 180 191 264 315 340 341 340 343 344 345 344 342 340 340 339 338 337 338 339 339 339 340 340 341 341 340 338 334 328 323 314 301 289 269 257 250 240 233 230
175 173 181 173 170 179 245 330 345 341 339 342 344 344 344 343 342 340 339 337 336 336 337 338 338 339 339 339 339 338 337 335 331 326 318 305 290 279 263 253 244 236 230
170 180 183 183 186 199 273 331 339 337 339 343 344 343 342 342 341 340 339 338 338 337 337 337 337 337 337 337 337 337 335 335 333 327 319 309 293 281 268 255 245 237 230
168 182 186 197 215 250 285 310 324 331 336 339 339 339 338 338 338 337 337 338 338 337 335 335 334 334 334 334 335 335 335 334 333 329 322 312 298 285 272 259 246 237 231
186 194 201 218 239 264 290 310 320 325 329 331 334 335 335 335 335 335 335 336 336 335 334 332 332 332 332 331 332 333 334 333 332 329 322 316 305 291 274 259 249 240 235
218 219 224 231 248 272 302 311 314 319 325 330 333 334 334 334 334 334 334 334 332 332 332 331 331 330 330 330 330 330 330 331 330 328 323 315 310 298 280 259 248 242 237
237 243 252 259 275 298 305 309 312 317 322 325 326 327 328 329 330 331 331 331 330 330 330 329 330 329 328 327 327 326 326 325 325 325 322 315 308 298 287 269 253 244 239
249 252 263 268 278 290 297 304 309 312 315 318 320 322 322 325 326 327 327 327 327 327 327 326 326 326 325 324 323 322 321 320 320 320 319 315 305 297 288 275 260 250 242
260 263 268 272 279 287 295 302 305 307 310 312 315 317 319 320 321 323 324 325 325 324 324 323 323 322 321 320 320 320 319 316 314 314 314 311 305 296 287 277 266 255 245
261 267 271 274 279 286 293 298 301 304 308 311 314 315 317 318 319 320 321 322 322 322 322 321 320 318 316 315 315 315 315 315 313 309 308 306 300 294 288 281 272 260 249
269 273 277 279 282 287 293 296 299 303 307 310 313 314 315 316 317 318 318 318 318 318 318 317 315 313 311 310 309 309 308 308 309 308 305 302 296 291 287 281 274 264 253
273 276 281 283 286 290 293 295 298 302 305 307 310 311 313 315 316 316 316 316 315 315 315 315 312 310 307 305 303 303 301 300 301 301 300 299 295 288 284 280 275 266 258
275 276 280 282 286 289 291 294 298 301 303 305 306 308 311 312 314 314 315 315 314 312 312 312 310 308 305 302 299 298 295 294 294 293 292 293 293 288 282 278 274 268 260
276 277 280 283 286 288 291 295 298 300 302 304 305 306 308 310 312 313 314 314 313 312 312 311 310 307 304 301 298 297 293 290 289 287 287 287 288 287 283 278 274 269 261
278 280 282 284 287 290 293 296 298 299 301 302 303 305 307 309 310 311 312 312 311 311 310 310 309 306 303 299 296 295 291 288 286 285 283 283 284 283 281 278 274 268 263
282 284 285 286 289 291 293 295 297 298 299 301 302 303 305 307 309 311 311 311 309 308 309 309 308 306 303 298 294 292 288 286 285 284 282 281 281 280 278 275 272 268 264
285 287 287 288 290 291 293 295 296 297 299 301 303 304 305 306 308 310 310 310 308 307 307 307 308 306 303 299 294 293 289 285 284 282 281 279 278 278 276 273 269 266 262
288 289 290 290 291 292 294 295 296 298 300 302 303 304 305 306 307 308 309 308 306 305 305 306 306 305 302 299 294 293 291 287 284 282 280 279 277 275 274 272 268 264 260
289 291 292 292 292 293 294 296 297 299 300 301 302 304 305 306 307 307 307 306 306 305 305 305 306 305 302 298 294 291 289 286 283 282 280 278 277 275 273 270 267 262 258
289 290 292 292 292 293 294 296 297 298 300 301 301 303 304 305 306 306 306 305 305 306 306 305 306 305 303 298 295 292 290 287 285 283 280 278 276 274 272 269 266 261 257
289 291 292 293 294 294 294 295 296 297 299 300 301 302 303 304 305 305 305 304 305 305 305 305 304 305 303 299 294 292 291 289 287 285 282 279 275 273 270 268 265 261 256
290 291 292 293 294 295 294 295 296 297 298 299 300 301 302 303 304 305 304 304 304 304 305 304 304 303 302 298 294 291 290 289 288 286 283 279 274 270 268 266 265 261 255
290 291 292 293 294 294 294 295 296 296 297 299 300 300 301 302 303 303 303 303 303 304 304 303 303 302 301 298 294 291 290 289 287 287 283 279 275 270 266 264 262 260 254
289 290 291 291 292 293 294 295 296 296 297 298 299 300 300 301 302 303 303 302 303 303 304 303 302 301 300 299 295 291 290 289 288 285 281 278 274 270 265 263 262 259 254
288 288 289 290 292 293 294 295 295 295 296 298 298 300 300 300 301 302 302 302 302 303 303 302 301 300 299 299 296 292 290 289 287 284 281 279 275 271 265 262 260 258 254
Height
5868 5868 5869 5869 5870 5870 5870 5870 5869 5868 5867 5866 5864 5862 5860 5858 5856 5854 5852 5849 5846 5844 5841 5838 5835 5832 5829 5825 5822 5819 5816 5813 5811 5809 5808 5806 5806 5806 5806 5807 5809 5811 5813
5867 5867 5868 5868 5868 5869 5869 5869 5868 5867 5866 5865 5863 5861 5859 5857 5855 5853 5850 5847 5845 5842 5839 5836 5833 5830 5827 5823 5820 5817 5814 5811 5809 5807 5805 5804 5804 5803 5803 5804 5805 5807 5810
5866 5866 5867 5867 5868 5868 5868 5868 5867 5866 5865 5864 5862 5860 5858 5856 5854 5851 5849 5846 5843 5840 5837 5835 5831 5828 5825 5822 5818 5815 5812 5809 5807 5805 5803 5801 5800 5800 5801 5801 5802 5804 5806
5865 5865 5866 5866 5866 5867 5867 5866 5866 5865 5864 5862 5860 5859 5857 5855 5852 5850 5847 5844 5841 5838 5835 5832 5829 5826 5823 5820 5816 5813 5810 5807 5805 5802 5801 5799 5798 5798 5798 5798 5799 5800 5802
5864 5864 5864 5865 5865 5865 5865 5865 5864 5864 5862 5861 5859 5857 5855 5853 5851 5848 5845 5842 5839 5836 5833 5830 5827 5824 5821 5818 5814 5811 5808 5805 5803 5801 5799 5797 5796 5795 5795 5795 5796 5797 5799
5863 5863 5863 5864 5864 5864 5864 5863 5863 5862 5861 5859 5857 5856 5854 5851 5849 5846 5843 5840 5837 5834 5831 5828 5825 5822 5819 5815 5812 5809 5806 5803 5801 5799 5797 5795 5794 5793 5792 5793 5793 5794 5795
5861 5862 5862 5862 5862 5862 5862 5862 5861 5860 5859 5857 5855 5853 5851 5849 5846 5844 5841 5838 5835 5832 5828 5825 5822 5819 5816 5813 5810 5807 5804 5801 5799 5797 5794 5793 5792 5791 5790 5790 5791 5792 5793
5860 5860 5861 5861 5860 5860 5860 5860 5859 5858 5856 5855 5853 5851 5849 5847 5844 5841 5838 5835 5832 5829 5825 5822 5818 5815 5812 5809 5807 5804 5801 5799 5797 5794 5792 5791 5789 5788 5788 5788 5788 5789 5790
5859 5859 5859 5859 5859 5859 5858 5858 5857 5856 5854 5853 5851 5849 5847 5844 5841 5838 5835 5832 5829 5825 5821 5818 5815 5812 5809 5806 5803 5801 5798 5796 5794 5792 5790 5788 5787 5786 5785 5785 5786 5787 5787
5857 5857 5857 5857 5857 5857 5856 5855 5854 5853 5852 5850 5848 5846 5843 5841 5838 5835 5832 5828 5825 5821 5817 5814 5811 5808 5805 5802 5799 5797 5795 5793 5791 5789 5787 5786 5784 5783 5782 5782 5782 5782 5784
5856 5855 5855 5855 5855 5854 5854 5853 5852 5850 5849 5847 5845 5842 5840 5837 5834 5831 5827 5824 5820 5816 5813 5809 5806 5803 5800 5797 5795 5793 5791 5789 5787 5785 5784 5783 5781 5780 5779 5779 5778 5779 5779
5853 5853 5853 5853 5852 5851 5851 5850 5848 5847 5845 5843 5841 5838 5836 5833 5830 5826 5823 5819 5815 5811 5808 5804 5800 5797 5794 5792 5790 5788 5786 5785 5783 5781 5780 5779 5778 5777 5776 5775 5775 5775 5775
5851 5851 5850 5850 5849 5848 5847 5846 5845 5843 5841 5839 5836 5834 5831 5828 5825 5821 5817 5813 5809 5805 5801 5798 5794 5791 5788 5786 5784 5782 5781 5780 5778 5777 5776 5774 5773 5772 5772 5771 5771 5770 5770
5848 5847 5847 5846 5846 5845 5843 5842 5841 5839 5837 5834 5832 5829 5826 5823 5819 5815 5811 5807 5803 5799 5795 5790 5787 5783 5780 5778 5777 5775 5774 5773 5772 5771 5770 5769 5768 5767 5766 5766 5765 5765 5765
5844 5844 5843 5843 5842 5840 5839 5837 5836 5834 5831 5829 5826 5823 5820 5817 5813 5809 5805 5801 5796 5792 5787 5783 5779 5775 5772 5770 5768 5766 5766 5765 5765 5764 5763 5762 5762 5761 5760 5759 5759 5759 5759
5840 5840 5839 5838 5837 5836 5834 5832 5830 5828 5825 5823 5820 5817 5814 5810 5806 5802 5798 5793 5789 5784 5780 5776 5771 5767 5764 5761 5759 5757 5756 5756 5756 5756 5755 5755 5754 5753 5753 5752 5752 5752 5752
5836 5835 5834 5833 5832 5831 5829 5827 5824 5822 5819 5816 5813 5809 5806 5803 5799 5794 5790 5785 5781 5776 5772 5767 5763 5759 5755 5752 5750 5748 5747 5747 5747 5746 5746 5746 5745 5744 5744 5744 5743 5743 5743
5831 5830 5829 5828 5826 5824 5822 5820 5817 5814 5811 5808 5805 5802 5798 5794 5790 5786 5781 5777 5772 5768 5764 5759 5755 5751 5747 5743 5740 5739 5738 5737 5737 5736 5735 5735 5735 5734 5734 5733 5733 5733 5734
5826 5824 5823 5822 5820 5817 5815 5812 5809 5806 5803 5800 5796 5793 5789 5785 5781 5777 5772 5768 5764 5759 5755 5750 5746 5741 5737 5733 5730 5728 5727 5726 5726 5724 5723 5723 5722 5722 5721 5721 5722 5722 5723
5820 5818 5817 5814 5812 5810 5807 5804 5801 5798 5795 5791 5788 5784 5780 5776 5772 5767 5763 5758 5754 5750 5745 5740 5735 5731 5726 5722 5719 5717 5715 5714 5713 5712 5711 5710 5709 5708 5707 5707 5708 5709 5710
5813 5811 5809 5807 5804 5801 5799 5796 5793 5790 5786 5782 5779 5775 5771 5766 5762 5757 5753 5748 5744 5740 5735 5730 5724 5719 5715 5711 5708 5705 5703 5701 5700 5699 5697 5696 5695 5694 5693 5693 5693 5694 5696
5806 5803 5801 5799 5796 5793 5790 5787 5784 5781 5777 5773 5769 5765 5761 5756 5752 5747 5742 5737 5733 5728 5723 5718 5713 5708 5703 5699 5696 5693 5690 5688 5686 5685 5683 5681 5680 5679 5679 5679 5679 5680 5681
5797 5795 5792 5789 5786 5784 5781 5778 5774 5771 5767 5763 5759 5755 5751 5746 5741 5736 5731 5726 5721 5717 5712 5707 5702 5697 5692 5687 5684 5681 5678 5675 5672 5670 5668 5666 5665 5665 5665 5665 5666 5666 5667
5788 5785 5783 5780 5777 5774 5771 5767 5764 5760 5757 5753 5748 5744 5740 5735 5730 5725 5719 5714 5709 5704 5700 5694 5690 5685 5680 5675 5671 5668 5665 5662 5659 5656 5654 5652 5651 5651 5651 5652 5653 5653 5655
5778 5775 5773 5770 5767 5763 5760 5757 5753 5750 5746 5741 5737 5732 5728 5723 5718 5713 5707 5702 5697 5691 5686 5682 5677 5672 5668 5663 5658 5654 5651 5648 5645 5643 5641 5639 5638 5638 5638 5639 5640 5641 5643
5767 5765 5762 5759 5756 5752 5749 5746 5742 5738 5734 5729 5725 5720 5715 5710 5705 5700 5695 5689 5684 5678 5672 5667 5662 5658 5653 5649 5645 5641 5637 5634 5631 5629 5627 5626 5625 5624 5625 5626 5627 5628 5630